KQA509 DGAA-HKJK

Flight info

Callsign KQA509
Flight time 5h 13m
Altitude 35000
Route EREKA1D EREKA DCT ENEVO UP685 DLA UR984 NLY UL434 NN UL433 NAKAT NAKAT4A
Aircraft B738/M-SDE2E3FGHIRWXY/LB1

Departure

Time 2026-04-29 21:47
Airport Kotoka International Airport (DGAA)

Arrival

Time 2026-04-30 03:01
Airport Jomo Kenyatta International Airport (HKJK)
Time Latitude Longitude Altitude Speed Heading
2026-04-29 21:27 5.60163 -0.17193 183 ft 0 kts 292°
2026-04-29 21:36 5.60157 -0.17179 211 ft 4 kts 292°
2026-04-29 21:37 5.60147 -0.17154 211 ft 4 kts 292°
2026-04-29 21:37 5.60138 -0.17133 213 ft 4 kts 304°
2026-04-29 21:37 5.60119 -0.17115 210 ft 4 kts 336°
2026-04-29 21:37 5.60094 -0.17110 206 ft 4 kts
2026-04-29 21:38 5.60069 -0.17118 206 ft 4 kts 23°
2026-04-29 21:38 5.60062 -0.17120 206 ft 1 kts 22°
2026-04-29 21:41 5.60069 -0.17118 206 ft 2 kts 22°
2026-04-29 21:41 5.60092 -0.17108 206 ft 5 kts 22°
2026-04-29 21:41 5.60138 -0.17089 215 ft 9 kts 22°
2026-04-29 21:41 5.60205 -0.17062 214 ft 12 kts 21°
2026-04-29 21:42 5.60288 -0.17027 215 ft 14 kts 22°
2026-04-29 21:42 5.60389 -0.16985 218 ft 17 kts 22°
2026-04-29 21:42 5.60464 -0.16954 222 ft 19 kts 22°
2026-04-29 21:42 5.60628 -0.16887 221 ft 19 kts 22°
2026-04-29 21:43 5.60746 -0.16838 221 ft 18 kts 22°
2026-04-29 21:43 5.60860 -0.16791 221 ft 17 kts 21°
2026-04-29 21:43 5.60970 -0.16745 222 ft 17 kts 22°
2026-04-29 21:43 5.61076 -0.16701 220 ft 16 kts 22°
2026-04-29 21:44 5.61179 -0.16659 219 ft 16 kts 22°
2026-04-29 21:44 5.61275 -0.16619 219 ft 15 kts 23°
2026-04-29 21:44 5.61371 -0.16580 221 ft 14 kts 22°
2026-04-29 21:44 5.61460 -0.16543 214 ft 14 kts 22°
2026-04-29 21:45 5.61541 -0.16510 216 ft 10 kts 22°
2026-04-29 21:45 5.61603 -0.16480 214 ft 10 kts 38°
2026-04-29 21:45 5.61622 -0.16419 214 ft 10 kts 103°
2026-04-29 21:45 5.61590 -0.16362 211 ft 9 kts 122°
2026-04-29 21:46 5.61554 -0.16310 219 ft 9 kts 148°
2026-04-29 21:46 5.61496 -0.16323 217 ft 9 kts 205°
2026-04-29 21:46 5.61437 -0.16348 218 ft 11 kts 201°
2026-04-29 21:46 5.61235 -0.16429 225 ft 64 kts 202°
2026-04-29 21:47 5.60614 -0.16685 220 ft 127 kts 201°
2026-04-29 21:47 5.59643 -0.17096 315 ft 169 kts 205°
2026-04-29 21:47 5.58559 -0.17551 1004 ft 169 kts 202°
2026-04-29 21:47 5.57461 -0.17962 1726 ft 174 kts 199°
2026-04-29 21:48 5.56151 -0.18032 1997 ft 206 kts 165°
2026-04-29 21:48 5.54825 -0.17291 2204 ft 234 kts 136°
2026-04-29 21:48 5.54016 -0.15790 2427 ft 261 kts 100°
2026-04-29 21:48 5.53867 -0.13945 3132 ft 268 kts 95°
2026-04-29 21:49 5.53684 -0.12085 4014 ft 267 kts 100°
2026-04-29 21:49 5.53345 -0.10243 4637 ft 269 kts 102°
2026-04-29 21:49 5.52973 -0.08425 5067 ft 269 kts 102°
2026-04-29 21:49 5.52591 -0.06586 5909 ft 269 kts 102°
2026-04-29 21:50 5.52211 -0.04738 6823 ft 266 kts 102°
2026-04-29 21:50 5.51847 -0.02942 7654 ft 266 kts 102°
2026-04-29 21:50 5.51480 -0.01115 8455 ft 267 kts 101°
2026-04-29 21:50 5.51117 0.00714 9254 ft 268 kts 101°
2026-04-29 21:51 5.50754 0.02547 10064 ft 268 kts 100°
2026-04-29 21:51 5.50384 0.04430 10463 ft 285 kts 100°
2026-04-29 21:51 5.49560 0.08646 10799 ft 328 kts 100°
2026-04-29 21:52 5.49115 0.10926 11234 ft 337 kts 100°
2026-04-29 21:52 5.48662 0.13244 11835 ft 340 kts 100°
2026-04-29 21:52 5.48205 0.15587 12469 ft 343 kts 100°
2026-04-29 21:52 5.47745 0.17945 13080 ft 346 kts 100°
2026-04-29 21:53 5.47285 0.20301 13675 ft 349 kts 100°
2026-04-29 21:53 5.46817 0.22705 14213 ft 353 kts 100°
2026-04-29 21:53 5.46343 0.25132 14728 ft 356 kts 100°
2026-04-29 21:53 5.45866 0.27583 15228 ft 360 kts 100°
2026-04-29 21:54 5.45383 0.30060 15727 ft 363 kts 100°
2026-04-29 21:54 5.44895 0.32560 16217 ft 367 kts 101°
2026-04-29 21:54 5.44403 0.35084 16717 ft 370 kts 101°
2026-04-29 21:54 5.43906 0.37630 17198 ft 373 kts 101°
2026-04-29 21:55 5.43406 0.40194 17696 ft 376 kts 101°
2026-04-29 21:55 5.42901 0.42778 18199 ft 379 kts 101°
2026-04-29 21:55 5.42392 0.45388 18599 ft 382 kts 101°
2026-04-29 21:55 5.41878 0.48017 19001 ft 384 kts 101°
2026-04-29 21:56 5.41537 0.49765 19264 ft 386 kts 101°
2026-04-29 21:56 5.41019 0.52415 19697 ft 388 kts 101°
2026-04-29 21:56 5.40500 0.55073 20086 ft 390 kts 101°
2026-04-29 21:56 5.39798 0.58664 20620 ft 393 kts 101°
2026-04-29 21:57 5.39449 0.60451 20874 ft 394 kts 101°
2026-04-29 21:57 5.38747 0.64042 21369 ft 398 kts 101°
2026-04-29 21:57 5.38386 0.65889 21607 ft 400 kts 101°
2026-04-29 21:57 5.37849 0.68633 21966 ft 402 kts 101°
2026-04-29 21:58 5.37309 0.71394 22320 ft 404 kts 101°
2026-04-29 21:58 5.36773 0.74132 22666 ft 406 kts 101°
2026-04-29 21:58 5.36226 0.76928 23007 ft 409 kts 101°
2026-04-29 21:58 5.35675 0.79739 23349 ft 410 kts 101°
2026-04-29 21:59 5.35124 0.82556 23650 ft 413 kts 101°
2026-04-29 21:59 5.34570 0.85382 23909 ft 415 kts 101°
2026-04-29 21:59 5.34012 0.88230 24164 ft 417 kts 101°
2026-04-29 21:59 5.33450 0.91099 24414 ft 419 kts 101°
2026-04-29 22:00 5.32886 0.93976 24676 ft 421 kts 101°
2026-04-29 22:00 5.32318 0.96872 24933 ft 423 kts 101°
2026-04-29 22:00 5.31756 0.99737 25172 ft 425 kts 101°
2026-04-29 22:00 5.31183 1.02656 25404 ft 428 kts 101°
2026-04-29 22:01 5.30607 1.05591 25644 ft 430 kts 101°
2026-04-29 22:01 5.30028 1.08542 25864 ft 432 kts 101°
2026-04-29 22:01 5.29444 1.11514 26086 ft 434 kts 101°
2026-04-29 22:01 5.28859 1.14494 26320 ft 436 kts 101°
2026-04-29 22:02 5.28271 1.17489 26519 ft 439 kts 100°
2026-04-29 22:02 5.27678 1.20506 26708 ft 442 kts 100°
2026-04-29 22:02 5.27081 1.23545 26923 ft 444 kts 100°
2026-04-29 22:02 5.26483 1.26584 27141 ft 446 kts 100°
2026-04-29 22:03 5.25882 1.29643 27356 ft 448 kts 100°
2026-04-29 22:03 5.25278 1.32713 27565 ft 450 kts 100°
2026-04-29 22:03 5.24671 1.35798 27764 ft 452 kts 100°
2026-04-29 22:03 5.24068 1.38863 27954 ft 454 kts 100°
2026-04-29 22:04 5.23455 1.41976 28119 ft 456 kts 100°
2026-04-29 22:04 5.22839 1.45105 28307 ft 458 kts 100°
2026-04-29 22:04 5.22220 1.48244 28505 ft 459 kts 100°
2026-04-29 22:04 5.21599 1.51401 28695 ft 461 kts 100°
2026-04-29 22:05 5.20975 1.54564 28881 ft 463 kts 100°
2026-04-29 22:05 5.20351 1.57730 29073 ft 464 kts 100°
2026-04-29 22:05 5.18870 1.64065 29446 ft 468 kts 103°
2026-04-29 22:06 5.18038 1.67221 29665 ft 468 kts 104°
2026-04-29 22:06 5.17198 1.70373 29939 ft 467 kts 104°
2026-04-29 22:06 5.16363 1.73528 30191 ft 467 kts 103°
2026-04-29 22:06 5.15539 1.76677 30411 ft 467 kts 103°
2026-04-29 22:07 5.14723 1.79826 30638 ft 466 kts 103°
2026-04-29 22:07 5.13922 1.82937 30880 ft 466 kts 103°
2026-04-29 22:07 5.13115 1.86080 31129 ft 465 kts 103°
2026-04-29 22:07 5.12312 1.89213 31360 ft 465 kts 103°
2026-04-29 22:08 5.11503 1.92365 31608 ft 464 kts 103°
2026-04-29 22:08 5.10698 1.95501 31901 ft 462 kts 103°
2026-04-29 22:08 5.09898 1.98612 32176 ft 461 kts 103°
2026-04-29 22:08 5.09095 2.01735 32402 ft 461 kts 103°
2026-04-29 22:09 5.08293 2.04853 32622 ft 462 kts 103°
2026-04-29 22:09 5.07492 2.07970 32877 ft 461 kts 103°
2026-04-29 22:09 5.06692 2.11080 33153 ft 460 kts 103°
2026-04-29 22:09 5.05902 2.14152 33392 ft 460 kts 103°
2026-04-29 22:10 5.05101 2.17263 33627 ft 460 kts 103°
2026-04-29 22:10 5.04302 2.20366 33881 ft 459 kts 103°
2026-04-29 22:10 5.03505 2.23466 34119 ft 459 kts 103°
2026-04-29 22:10 5.02710 2.26561 34329 ft 458 kts 103°
2026-04-29 22:11 5.01915 2.29657 34523 ft 458 kts 103°
2026-04-29 22:11 5.01122 2.32746 34802 ft 456 kts 103°
2026-04-29 22:11 5.00332 2.35822 34972 ft 456 kts 103°
2026-04-29 22:12 4.98750 2.41983 34970 ft 458 kts 103°
2026-04-29 22:12 4.97168 2.48140 34969 ft 454 kts 103°
2026-04-29 22:13 4.95593 2.54265 34969 ft 452 kts 103°
2026-04-29 22:13 4.94026 2.60356 34962 ft 451 kts 103°
2026-04-29 22:14 4.92461 2.66440 34974 ft 451 kts 103°
2026-04-29 22:14 4.90891 2.72544 34978 ft 452 kts 103°
2026-04-29 22:15 4.89314 2.78666 34979 ft 455 kts 103°
2026-04-29 22:15 4.87729 2.84818 34977 ft 457 kts 103°
2026-04-29 22:16 4.86134 2.91008 34976 ft 458 kts 103°
2026-04-29 22:16 4.84547 2.97167 34973 ft 460 kts 103°
2026-04-29 22:17 4.82943 3.03388 34970 ft 461 kts 103°
2026-04-29 22:17 4.81339 3.09612 34977 ft 460 kts 103°
2026-04-29 22:18 4.79737 3.15818 34967 ft 459 kts 103°
2026-04-29 22:18 4.78139 3.22011 34969 ft 457 kts 103°
2026-04-29 22:19 4.76559 3.28133 34970 ft 456 kts 103°
2026-04-29 22:19 4.74973 3.34274 34971 ft 454 kts 103°
2026-04-29 22:20 4.73389 3.40403 34966 ft 453 kts 103°
2026-04-29 22:20 4.71807 3.46523 34967 ft 452 kts 103°
2026-04-29 22:21 4.70231 3.52620 34967 ft 452 kts 103°
2026-04-29 22:21 4.68655 3.58714 34969 ft 452 kts 103°
2026-04-29 22:22 4.67087 3.64775 34969 ft 452 kts 103°
2026-04-29 22:22 4.65504 3.70889 34968 ft 453 kts 103°
2026-04-29 22:23 4.63920 3.77008 34970 ft 454 kts 103°
2026-04-29 22:23 4.62328 3.83151 34973 ft 455 kts 103°
2026-04-29 22:24 4.60737 3.89291 34967 ft 455 kts 103°
2026-04-29 22:24 4.59153 3.95400 34968 ft 456 kts 103°
2026-04-29 22:25 4.57557 4.01554 34966 ft 456 kts 103°
2026-04-29 22:25 4.55960 4.07711 34968 ft 456 kts 103°
2026-04-29 22:26 4.54359 4.13880 34966 ft 457 kts 103°
2026-04-29 22:26 4.52756 4.20053 34970 ft 457 kts 103°
2026-04-29 22:27 4.51153 4.26227 34967 ft 458 kts 103°
2026-04-29 22:27 4.49547 4.32408 34965 ft 458 kts 103°
2026-04-29 22:28 4.47950 4.38554 34966 ft 459 kts 103°
2026-04-29 22:28 4.46340 4.44747 34967 ft 459 kts 103°
2026-04-29 22:29 4.44729 4.50943 34967 ft 459 kts 103°
2026-04-29 22:29 4.43362 4.57184 34962 ft 457 kts 94°
2026-04-29 22:30 4.42807 4.63533 34963 ft 457 kts 93°
2026-04-29 22:30 4.42311 4.69867 34967 ft 456 kts 93°
2026-04-29 22:31 4.41771 4.76198 34968 ft 456 kts 94°
2026-04-29 22:31 4.41203 4.82527 34966 ft 455 kts 94°
2026-04-29 22:32 4.40629 4.88820 34967 ft 455 kts 94°
2026-04-29 22:32 4.40055 4.95126 34967 ft 454 kts 94°
2026-04-29 22:33 4.39481 5.01431 34969 ft 453 kts 94°
2026-04-29 22:33 4.38912 5.07686 34966 ft 453 kts 94°
2026-04-29 22:34 4.38340 5.13973 34966 ft 452 kts 94°
2026-04-29 22:34 4.37768 5.20247 34963 ft 452 kts 94°
2026-04-29 22:35 4.37195 5.26522 34967 ft 451 kts 94°
2026-04-29 22:35 4.36623 5.32787 34968 ft 451 kts 94°
2026-04-29 22:36 4.36051 5.39039 34967 ft 451 kts 93°
2026-04-29 22:36 4.35482 5.45259 34963 ft 451 kts 93°
2026-04-29 22:37 4.34910 5.51509 34964 ft 450 kts 93°
2026-04-29 22:37 4.34337 5.57762 34964 ft 450 kts 93°
2026-04-29 22:38 4.33765 5.64004 34961 ft 450 kts 94°
2026-04-29 22:38 4.33184 5.70243 34961 ft 450 kts 94°
2026-04-29 22:39 4.32591 5.76487 34958 ft 450 kts 93°
2026-04-29 22:39 4.31998 5.82725 34962 ft 450 kts 93°
2026-04-29 22:40 4.31410 5.88927 34961 ft 450 kts 93°
2026-04-29 22:40 4.30818 5.95173 34962 ft 450 kts 93°
2026-04-29 22:41 4.30225 6.01422 34964 ft 450 kts 93°
2026-04-29 22:41 4.29630 6.07674 34962 ft 450 kts 93°
2026-04-29 22:42 4.29030 6.13924 34950 ft 451 kts 93°
2026-04-29 22:42 4.28430 6.20145 34961 ft 451 kts 93°
2026-04-29 22:43 4.27827 6.26410 34959 ft 452 kts 93°
2026-04-29 22:43 4.27223 6.32685 34961 ft 453 kts 93°
2026-04-29 22:44 4.26617 6.38976 34959 ft 453 kts 93°
2026-04-29 22:44 4.26010 6.45268 34959 ft 454 kts 93°
2026-04-29 22:45 4.25405 6.51574 34957 ft 454 kts 93°
2026-04-29 22:45 4.24804 6.57849 34961 ft 455 kts 93°
2026-04-29 22:46 4.24198 6.64156 34959 ft 455 kts 93°
2026-04-29 22:46 4.23591 6.70462 34953 ft 455 kts 93°
2026-04-29 22:47 4.22980 6.76767 34955 ft 455 kts 93°
2026-04-29 22:47 4.22471 6.82008 34953 ft 454 kts 93°
2026-04-29 22:48 4.21860 6.88307 34951 ft 454 kts 93°
2026-04-29 22:48 4.21248 6.94608 34955 ft 454 kts 93°
2026-04-29 22:49 4.20638 7.00890 34950 ft 453 kts 93°
2026-04-29 22:49 4.20025 7.07189 34950 ft 453 kts 93°
2026-04-29 22:50 4.19414 7.13471 34950 ft 453 kts 93°
2026-04-29 22:50 4.18802 7.19749 34953 ft 453 kts 93°
2026-04-29 22:51 4.18194 7.25990 34956 ft 453 kts 93°
2026-04-29 22:51 4.17274 7.35410 34954 ft 453 kts 93°
2026-04-29 22:52 4.16660 7.41693 34953 ft 453 kts 93°
2026-04-29 22:52 4.16047 7.47969 34954 ft 453 kts 93°
2026-04-29 22:53 4.15433 7.54247 34948 ft 453 kts 94°
2026-04-29 22:53 4.14817 7.60532 34968 ft 453 kts 94°
2026-04-29 22:54 4.14200 7.66826 34957 ft 454 kts 94°
2026-04-29 22:54 4.13582 7.73125 34953 ft 455 kts 94°
2026-04-29 22:55 4.12962 7.79440 34952 ft 455 kts 94°
2026-04-29 22:55 4.12346 7.85718 34950 ft 455 kts 94°
2026-04-29 22:56 4.11811 7.92030 34950 ft 455 kts 92°
2026-04-29 22:56 4.11408 7.98364 34951 ft 455 kts 92°
2026-04-29 22:57 4.11011 8.04691 34952 ft 455 kts 93°
2026-04-29 22:57 4.10595 8.11017 34951 ft 455 kts 93°
2026-04-29 22:58 4.10168 8.17355 34951 ft 455 kts 93°
2026-04-29 22:58 4.09742 8.23635 34947 ft 455 kts 93°
2026-04-29 22:59 4.09313 8.29959 34948 ft 455 kts 93°
2026-04-29 22:59 4.08883 8.36289 34947 ft 455 kts 93°
2026-04-29 23:00 4.08454 8.42613 34950 ft 455 kts 94°
2026-04-29 23:00 4.08024 8.48943 34949 ft 455 kts 94°
2026-04-29 23:01 4.07593 8.55270 34950 ft 455 kts 94°
2026-04-29 23:01 4.07165 8.61557 34951 ft 455 kts 94°
2026-04-29 23:02 4.06733 8.67890 34951 ft 456 kts 94°
2026-04-29 23:02 4.06300 8.74231 34946 ft 456 kts 93°
2026-04-29 23:03 4.05866 8.80571 34961 ft 456 kts 93°
2026-04-29 23:03 4.05432 8.86912 34959 ft 456 kts 93°
2026-04-29 23:04 4.04997 8.93262 34959 ft 457 kts 93°
2026-04-29 23:04 4.04564 8.99573 34967 ft 457 kts 93°
2026-04-29 23:05 4.04128 9.05921 34967 ft 457 kts 93°
2026-04-29 23:05 4.03691 9.12276 34962 ft 457 kts 94°
2026-04-29 23:06 4.03253 9.18626 34962 ft 456 kts 94°
2026-04-29 23:06 4.02819 9.24931 34953 ft 456 kts 94°
2026-04-29 23:07 4.02382 9.31261 34950 ft 455 kts 94°
2026-04-29 23:07 4.01944 9.37596 34949 ft 454 kts 94°
2026-04-29 23:08 4.01508 9.43913 34943 ft 454 kts 94°
2026-04-29 23:08 4.01074 9.50179 34944 ft 453 kts 94°
2026-04-29 23:09 4.00637 9.56480 34936 ft 453 kts 94°
2026-04-29 23:09 4.00201 9.62774 34940 ft 452 kts 94°
2026-04-29 23:10 3.99764 9.69058 34940 ft 452 kts 94°
2026-04-29 23:10 3.99291 9.75337 34938 ft 452 kts 96°
2026-04-29 23:11 3.98421 9.81576 34942 ft 452 kts 98°
2026-04-29 23:11 3.97452 9.87765 34946 ft 452 kts 98°
2026-04-29 23:12 3.96512 9.93994 34941 ft 452 kts 98°
2026-04-29 23:12 3.95597 10.00227 34952 ft 452 kts 98°
2026-04-29 23:13 3.94684 10.06466 34953 ft 452 kts 98°
2026-04-29 23:13 3.93770 10.12695 34952 ft 452 kts 98°
2026-04-29 23:14 3.92856 10.18916 34962 ft 452 kts 98°
2026-04-29 23:14 3.91941 10.25115 34957 ft 452 kts 98°
2026-04-29 23:15 3.91021 10.31350 34977 ft 452 kts 98°
2026-04-29 23:15 3.90101 10.37584 34974 ft 453 kts 98°
2026-04-29 23:16 3.89179 10.43829 34991 ft 453 kts 98°
2026-04-29 23:16 3.88257 10.50072 34988 ft 453 kts 98°
2026-04-29 23:17 3.87333 10.56325 34989 ft 453 kts 98°
2026-04-29 23:17 3.86415 10.62532 35000 ft 454 kts 98°
2026-04-29 23:18 3.85490 10.68783 34999 ft 454 kts 98°
2026-04-29 23:18 3.84565 10.75036 35011 ft 454 kts 98°
2026-04-29 23:19 3.83638 10.81294 35013 ft 454 kts 98°
2026-04-29 23:19 3.82711 10.87551 35025 ft 454 kts 98°
2026-04-29 23:20 3.81785 10.93799 35028 ft 453 kts 98°
2026-04-29 23:20 3.80859 11.00046 35025 ft 453 kts 98°
2026-04-29 23:21 3.79938 11.06252 35036 ft 453 kts 98°
2026-04-29 23:21 3.79010 11.12498 35034 ft 453 kts 98°
2026-04-29 23:22 3.78084 11.18733 35035 ft 453 kts 98°
2026-04-29 23:22 3.77158 11.24965 35036 ft 452 kts 98°
2026-04-29 23:23 3.76232 11.31196 35044 ft 452 kts 98°
2026-04-29 23:23 3.75304 11.37435 35047 ft 452 kts 98°
2026-04-29 23:24 3.74383 11.43625 35048 ft 452 kts 98°
2026-04-29 23:24 3.73454 11.49863 35049 ft 452 kts 98°
2026-04-29 23:25 3.72512 11.56093 35050 ft 453 kts 99°
2026-04-29 23:25 3.71246 11.62266 35051 ft 452 kts 102°
2026-04-29 23:26 3.69841 11.68421 35045 ft 452 kts 102°
2026-04-29 23:26 3.68465 11.74529 35044 ft 452 kts 102°
2026-04-29 23:27 3.67109 11.80679 35036 ft 452 kts 102°
2026-04-29 23:27 3.65761 11.86835 35032 ft 451 kts 102°
2026-04-29 23:28 3.64418 11.92974 35025 ft 451 kts 102°
2026-04-29 23:28 3.63075 11.99109 35024 ft 451 kts 102°
2026-04-29 23:29 3.61728 12.05255 35019 ft 451 kts 102°
2026-04-29 23:29 3.60393 12.11344 35018 ft 451 kts 102°
2026-04-29 23:30 3.59047 12.17479 35020 ft 451 kts 102°
2026-04-29 23:30 3.57700 12.23620 35015 ft 451 kts 102°
2026-04-29 23:31 3.56355 12.29747 35011 ft 451 kts 102°
2026-04-29 23:31 3.55018 12.35840 35009 ft 451 kts 102°
2026-04-29 23:32 3.53670 12.41976 35009 ft 451 kts 102°
2026-04-29 23:32 3.52322 12.48115 35003 ft 451 kts 102°
2026-04-29 23:33 3.50972 12.54256 35004 ft 451 kts 102°
2026-04-29 23:33 3.49624 12.60391 35002 ft 451 kts 102°
2026-04-29 23:34 3.48282 12.66494 35000 ft 451 kts 102°
2026-04-29 23:34 3.46932 12.72628 35000 ft 452 kts 102°
2026-04-29 23:35 3.45577 12.78768 34995 ft 452 kts 102°
2026-04-29 23:35 3.44221 12.84912 34998 ft 452 kts 102°
2026-04-29 23:36 3.42865 12.91058 34998 ft 452 kts 102°
2026-04-29 23:36 3.41735 12.96179 34992 ft 453 kts 102°
2026-04-29 23:37 3.40376 13.02333 34992 ft 453 kts 102°
2026-04-29 23:37 3.39013 13.08504 34986 ft 453 kts 102°
2026-04-29 23:38 3.37660 13.14631 34988 ft 453 kts 102°
2026-04-29 23:38 3.36296 13.20804 34984 ft 454 kts 102°
2026-04-29 23:39 3.34930 13.26981 34984 ft 454 kts 102°
2026-04-29 23:39 3.33571 13.33127 34982 ft 454 kts 102°
2026-04-29 23:40 3.32205 13.39304 34981 ft 455 kts 102°
2026-04-29 23:40 3.30837 13.45490 34982 ft 455 kts 102°
2026-04-29 23:41 3.29469 13.51670 34981 ft 455 kts 102°
2026-04-29 23:41 3.28099 13.57860 34978 ft 455 kts 102°
2026-04-29 23:42 3.26733 13.64043 34970 ft 455 kts 102°
2026-04-29 23:42 3.25376 13.70185 34969 ft 455 kts 102°
2026-04-29 23:43 3.24008 13.76379 34968 ft 455 kts 102°
2026-04-29 23:43 3.22640 13.82566 34963 ft 455 kts 102°
2026-04-29 23:44 3.21272 13.88752 34965 ft 455 kts 102°
2026-04-29 23:44 3.19913 13.94896 34963 ft 455 kts 102°
2026-04-29 23:45 3.18545 14.01079 34959 ft 455 kts 102°
2026-04-29 23:45 3.17179 14.07254 34959 ft 454 kts 102°
2026-04-29 23:46 3.15813 14.13425 34959 ft 454 kts 102°
2026-04-29 23:46 3.14445 14.19601 34960 ft 454 kts 102°
2026-04-29 23:47 3.13086 14.25734 34958 ft 454 kts 102°
2026-04-29 23:47 3.11720 14.31900 34955 ft 454 kts 102°
2026-04-29 23:48 3.10351 14.38078 34955 ft 454 kts 102°
2026-04-29 23:48 3.08983 14.44252 34956 ft 454 kts 102°
2026-04-29 23:49 3.07625 14.50380 34956 ft 454 kts 102°
2026-04-29 23:49 3.06257 14.56548 34956 ft 453 kts 102°
2026-04-29 23:50 3.04888 14.62720 34956 ft 453 kts 102°
2026-04-29 23:51 3.02848 14.71914 34955 ft 453 kts 102°
2026-04-29 23:51 3.01482 14.78070 34953 ft 453 kts 102°
2026-04-29 23:52 3.00113 14.84233 34954 ft 453 kts 102°
2026-04-29 23:52 2.98746 14.90390 34955 ft 453 kts 102°
2026-04-29 23:53 2.97377 14.96554 34954 ft 453 kts 101°
2026-04-29 23:53 2.96016 15.02676 34949 ft 453 kts 101°
2026-04-29 23:54 2.94649 15.08830 34948 ft 453 kts 102°
2026-04-29 23:54 2.93281 15.14980 34946 ft 453 kts 102°
2026-04-29 23:55 2.91914 15.21128 34949 ft 452 kts 102°
2026-04-29 23:55 2.90548 15.27270 34947 ft 452 kts 102°
2026-04-29 23:56 2.89180 15.33415 34948 ft 452 kts 102°
2026-04-29 23:56 2.87823 15.39517 34946 ft 452 kts 102°
2026-04-29 23:57 2.86456 15.45656 34945 ft 451 kts 102°
2026-04-29 23:57 2.85091 15.51785 34945 ft 451 kts 102°
2026-04-29 23:58 2.83722 15.57932 34946 ft 451 kts 102°
2026-04-29 23:58 2.82359 15.64051 34945 ft 451 kts 102°
2026-04-29 23:59 2.81001 15.70144 34942 ft 451 kts 102°
2026-04-29 23:59 2.79635 15.76272 34945 ft 451 kts 102°
2026-04-30 00:00 2.78265 15.82408 34939 ft 451 kts 102°
2026-04-30 00:00 2.76895 15.88545 34940 ft 452 kts 102°
2026-04-30 00:01 2.75535 15.94635 34940 ft 452 kts 102°
2026-04-30 00:01 2.74164 16.00774 34932 ft 452 kts 102°
2026-04-30 00:02 2.72794 16.06909 34935 ft 452 kts 102°
2026-04-30 00:02 2.71423 16.13044 34933 ft 452 kts 102°
2026-04-30 00:03 2.70052 16.19179 34932 ft 452 kts 102°
2026-04-30 00:03 2.68681 16.25315 34931 ft 452 kts 102°
2026-04-30 00:04 2.67307 16.31459 34934 ft 452 kts 102°
2026-04-30 00:04 2.65936 16.37589 34934 ft 452 kts 102°
2026-04-30 00:05 2.64563 16.43726 34930 ft 452 kts 102°
2026-04-30 00:05 2.63188 16.49871 34928 ft 452 kts 102°
2026-04-30 00:06 2.61824 16.55968 34928 ft 452 kts 102°
2026-04-30 00:06 2.60448 16.62112 34929 ft 452 kts 102°
2026-04-30 00:07 2.59074 16.68250 34929 ft 452 kts 102°
2026-04-30 00:07 2.57698 16.74394 34929 ft 452 kts 102°
2026-04-30 00:08 2.56324 16.80529 34925 ft 452 kts 102°
2026-04-30 00:08 2.54949 16.86665 34929 ft 452 kts 102°
2026-04-30 00:09 2.53572 16.92811 34926 ft 452 kts 102°
2026-04-30 00:09 2.52206 16.98902 34925 ft 452 kts 102°
2026-04-30 00:10 2.50831 17.05037 34924 ft 451 kts 102°
2026-04-30 00:10 2.49457 17.11161 34924 ft 451 kts 102°
2026-04-30 00:11 2.48083 17.17289 34920 ft 451 kts 102°
2026-04-30 00:11 2.46710 17.23407 34918 ft 451 kts 102°
2026-04-30 00:12 2.45335 17.29535 34920 ft 450 kts 102°
2026-04-30 00:12 2.43973 17.35605 34915 ft 450 kts 102°
2026-04-30 00:13 2.42600 17.41721 34918 ft 450 kts 102°
2026-04-30 00:13 2.41228 17.47828 34918 ft 450 kts 102°
2026-04-30 00:14 2.39857 17.53933 34915 ft 450 kts 102°
2026-04-30 00:14 2.38484 17.60045 34914 ft 450 kts 102°
2026-04-30 00:15 2.37113 17.66148 34910 ft 450 kts 102°
2026-04-30 00:15 2.35718 17.72209 34912 ft 450 kts 102°
2026-04-30 00:16 2.34312 17.78310 34917 ft 450 kts 102°
2026-04-30 00:16 2.33008 17.84434 34915 ft 450 kts 101°
2026-04-30 00:17 2.31717 17.90562 34909 ft 450 kts 101°
2026-04-30 00:17 2.30420 17.96651 34910 ft 450 kts 101°
2026-04-30 00:18 2.29110 18.02772 34909 ft 450 kts 101°
2026-04-30 00:18 2.27798 18.08901 34910 ft 450 kts 101°
2026-04-30 00:19 2.26433 18.15021 34906 ft 451 kts 103°
2026-04-30 00:19 2.24894 18.21061 34909 ft 451 kts 104°
2026-04-30 00:20 2.23337 18.27132 34912 ft 451 kts 103°
2026-04-30 00:20 2.21805 18.33211 34913 ft 451 kts 103°
2026-04-30 00:21 2.20282 18.39292 34913 ft 451 kts 103°
2026-04-30 00:21 2.18758 18.45377 34910 ft 451 kts 103°
2026-04-30 00:22 2.17237 18.51469 34912 ft 451 kts 103°
2026-04-30 00:22 2.15754 18.57566 34910 ft 451 kts 103°
2026-04-30 00:23 2.14288 18.63628 34913 ft 452 kts 103°
2026-04-30 00:23 2.12806 18.69734 34913 ft 452 kts 103°
2026-04-30 00:24 2.11320 18.75851 34911 ft 452 kts 103°
2026-04-30 00:24 2.09833 18.81965 34907 ft 453 kts 103°
2026-04-30 00:25 2.08344 18.88085 34915 ft 453 kts 103°
2026-04-30 00:25 2.06860 18.94183 34913 ft 454 kts 103°
2026-04-30 00:26 2.05369 19.00313 34910 ft 454 kts 103°
2026-04-30 00:26 2.04126 19.05420 34910 ft 454 kts 103°
2026-04-30 00:27 2.02631 19.11563 34909 ft 454 kts 103°
2026-04-30 00:27 2.01137 19.17700 34911 ft 454 kts 103°
2026-04-30 00:28 1.99631 19.23834 34907 ft 454 kts 103°
2026-04-30 00:28 1.98104 19.29966 34910 ft 454 kts 103°
2026-04-30 00:29 1.96586 19.36068 34911 ft 454 kts 103°
2026-04-30 00:29 1.95066 19.42188 34909 ft 453 kts 103°
2026-04-30 00:30 1.93546 19.48309 34908 ft 453 kts 103°
2026-04-30 00:30 1.92044 19.54430 34909 ft 453 kts 103°
2026-04-30 00:31 1.90567 19.60502 34912 ft 452 kts 103°
2026-04-30 00:31 1.89078 19.66617 34906 ft 452 kts 103°
2026-04-30 00:32 1.87587 19.72728 34908 ft 452 kts 103°
2026-04-30 00:32 1.86098 19.78828 34910 ft 452 kts 103°
2026-04-30 00:33 1.84620 19.84885 34910 ft 451 kts 103°
2026-04-30 00:33 1.83130 19.90988 34910 ft 451 kts 103°
2026-04-30 00:34 1.81634 19.97095 34907 ft 451 kts 103°
2026-04-30 00:34 1.80121 20.03144 34907 ft 451 kts 103°
2026-04-30 00:35 1.78594 20.09232 34908 ft 451 kts 103°
2026-04-30 00:35 1.77072 20.15313 34908 ft 451 kts 103°
2026-04-30 00:36 1.75550 20.21400 34909 ft 451 kts 103°
2026-04-30 00:36 1.74030 20.27481 34909 ft 451 kts 103°
2026-04-30 00:37 1.72519 20.33526 34907 ft 451 kts 103°
2026-04-30 00:37 1.70998 20.39609 34907 ft 451 kts 103°
2026-04-30 00:38 1.69477 20.45692 34909 ft 451 kts 103°
2026-04-30 00:38 1.67955 20.51782 34910 ft 451 kts 103°
2026-04-30 00:39 1.66442 20.57830 34910 ft 450 kts 103°
2026-04-30 00:39 1.64938 20.63917 34909 ft 450 kts 103°
2026-04-30 00:40 1.63463 20.69975 34910 ft 450 kts 103°
2026-04-30 00:40 1.61980 20.76066 34912 ft 450 kts 103°
2026-04-30 00:41 1.60496 20.82150 34911 ft 451 kts 103°
2026-04-30 00:41 1.59007 20.88246 34912 ft 451 kts 103°
2026-04-30 00:42 1.57527 20.94306 34911 ft 451 kts 103°
2026-04-30 00:42 1.56037 21.00406 34910 ft 452 kts 103°
2026-04-30 00:43 1.54542 21.06522 34912 ft 452 kts 103°
2026-04-30 00:43 1.53049 21.12634 34913 ft 453 kts 103°
2026-04-30 00:44 1.51554 21.18752 34909 ft 453 kts 103°
2026-04-30 00:44 1.50055 21.24883 34913 ft 454 kts 103°
2026-04-30 00:45 1.48557 21.31013 34912 ft 454 kts 103°
2026-04-30 00:45 1.47065 21.37113 34909 ft 454 kts 103°
2026-04-30 00:46 1.45565 21.43252 34911 ft 455 kts 103°
2026-04-30 00:46 1.44062 21.49397 34913 ft 455 kts 103°
2026-04-30 00:47 1.42557 21.55536 34916 ft 455 kts 103°
2026-04-30 00:47 1.41044 21.61664 34912 ft 454 kts 103°
2026-04-30 00:48 1.39530 21.67796 34908 ft 454 kts 103°
2026-04-30 00:48 1.38017 21.73929 34910 ft 454 kts 103°
2026-04-30 00:49 1.36518 21.80009 34914 ft 453 kts 103°
2026-04-30 00:49 1.35007 21.86136 34909 ft 453 kts 103°
2026-04-30 00:50 1.33501 21.92242 34908 ft 452 kts 103°
2026-04-30 00:50 1.31997 21.98340 34912 ft 452 kts 103°
2026-04-30 00:51 1.30494 22.04432 34911 ft 451 kts 103°
2026-04-30 00:51 1.28993 22.10520 34909 ft 451 kts 103°
2026-04-30 00:52 1.27490 22.16611 34915 ft 451 kts 103°
2026-04-30 00:52 1.25995 22.22661 34911 ft 451 kts 103°
2026-04-30 00:53 1.24483 22.28759 34912 ft 450 kts 103°
2026-04-30 00:53 1.22985 22.34807 34912 ft 450 kts 103°
2026-04-30 00:54 1.21481 22.40881 34909 ft 450 kts 103°
2026-04-30 00:54 1.19973 22.46967 34912 ft 450 kts 103°
2026-04-30 00:55 1.18471 22.53031 34911 ft 450 kts 103°
2026-04-30 00:55 1.16214 22.62143 34912 ft 450 kts 103°
2026-04-30 00:56 1.14721 22.68170 34912 ft 450 kts 103°
2026-04-30 00:56 1.13219 22.74235 34912 ft 449 kts 103°
2026-04-30 00:57 1.11716 22.80298 34913 ft 449 kts 103°
2026-04-30 00:57 1.10213 22.86363 34909 ft 449 kts 103°
2026-04-30 00:58 1.08710 22.92427 34912 ft 449 kts 103°
2026-04-30 00:58 1.07211 22.98477 34912 ft 448 kts 103°
2026-04-30 00:59 1.05719 23.04496 34914 ft 448 kts 103°
2026-04-30 00:59 1.04219 23.10545 34912 ft 448 kts 103°
2026-04-30 01:00 1.02722 23.16583 34912 ft 447 kts 103°
2026-04-30 01:00 1.01226 23.22618 34911 ft 447 kts 103°
2026-04-30 01:01 0.99728 23.28661 34911 ft 447 kts 103°
2026-04-30 01:01 0.98231 23.34697 34911 ft 448 kts 103°
2026-04-30 01:02 0.96732 23.40740 34907 ft 448 kts 103°
2026-04-30 01:02 0.95246 23.46733 34907 ft 448 kts 103°
2026-04-30 01:03 0.93746 23.52781 34906 ft 448 kts 103°
2026-04-30 01:03 0.92245 23.58830 34907 ft 448 kts 103°
2026-04-30 01:04 0.90746 23.64874 34899 ft 448 kts 103°
2026-04-30 01:04 0.89246 23.70919 34899 ft 448 kts 103°
2026-04-30 01:05 0.87744 23.76972 34899 ft 448 kts 103°
2026-04-30 01:05 0.86244 23.83020 34898 ft 448 kts 103°
2026-04-30 01:06 0.84752 23.89029 34897 ft 449 kts 103°
2026-04-30 01:06 0.83251 23.95080 34895 ft 449 kts 103°
2026-04-30 01:07 0.81749 24.01131 34896 ft 449 kts 103°
2026-04-30 01:07 0.80246 24.07189 34896 ft 449 kts 103°
2026-04-30 01:08 0.78740 24.13256 34896 ft 449 kts 103°
2026-04-30 01:08 0.77244 24.19284 34896 ft 449 kts 103°
2026-04-30 01:09 0.75738 24.25349 34894 ft 449 kts 103°
2026-04-30 01:09 0.74232 24.31416 34894 ft 449 kts 103°
2026-04-30 01:10 0.72727 24.37478 34895 ft 450 kts 103°
2026-04-30 01:10 0.71221 24.43544 34894 ft 450 kts 103°
2026-04-30 01:11 0.69723 24.49580 34897 ft 450 kts 103°
2026-04-30 01:11 0.68217 24.55660 34896 ft 450 kts 103°
2026-04-30 01:12 0.66731 24.61731 34892 ft 450 kts 103°
2026-04-30 01:12 0.65246 24.67817 34893 ft 450 kts 103°
2026-04-30 01:13 0.63760 24.73901 34893 ft 450 kts 103°
2026-04-30 01:13 0.62275 24.79974 34893 ft 450 kts 103°
2026-04-30 01:14 0.60797 24.86018 34893 ft 450 kts 103°
2026-04-30 01:14 0.59313 24.92086 34894 ft 449 kts 103°
2026-04-30 01:15 0.58071 24.97163 34893 ft 449 kts 103°
2026-04-30 01:15 0.56595 25.03199 34895 ft 449 kts 103°
2026-04-30 01:16 0.55113 25.09256 34893 ft 449 kts 103°
2026-04-30 01:16 0.53628 25.15327 34894 ft 449 kts 103°
2026-04-30 01:17 0.52143 25.21400 34896 ft 449 kts 103°
2026-04-30 01:17 0.50659 25.27468 34897 ft 450 kts 103°
2026-04-30 01:18 0.49374 25.33575 34889 ft 449 kts 95°
2026-04-30 01:18 0.48993 25.39766 34893 ft 449 kts 92°
2026-04-30 01:19 0.48681 25.46000 34895 ft 449 kts 92°
2026-04-30 01:19 0.48328 25.52237 34898 ft 450 kts 93°
2026-04-30 01:20 0.47945 25.58478 34898 ft 450 kts 93°
2026-04-30 01:20 0.47555 25.64714 34902 ft 450 kts 93°
2026-04-30 01:21 0.47164 25.70966 34899 ft 450 kts 93°
2026-04-30 01:21 0.46775 25.77222 34903 ft 451 kts 93°
2026-04-30 01:22 0.46386 25.83470 34899 ft 450 kts 93°
2026-04-30 01:22 0.46000 25.89680 34905 ft 450 kts 93°
2026-04-30 01:23 0.45612 25.95923 34904 ft 450 kts 93°
2026-04-30 01:23 0.45223 26.02164 34908 ft 450 kts 93°
2026-04-30 01:24 0.44835 26.08406 34906 ft 449 kts 93°
2026-04-30 01:24 0.44446 26.14649 34910 ft 449 kts 93°
2026-04-30 01:25 0.44060 26.20876 34910 ft 449 kts 93°
2026-04-30 01:25 0.43679 26.27073 34908 ft 449 kts 93°
2026-04-30 01:26 0.43297 26.33294 34908 ft 448 kts 93°
2026-04-30 01:26 0.42915 26.39518 34912 ft 448 kts 93°
2026-04-30 01:27 0.42532 26.45739 34912 ft 448 kts 93°
2026-04-30 01:27 0.42150 26.51952 34912 ft 448 kts 93°
2026-04-30 01:28 0.41770 26.58122 34914 ft 448 kts 94°
2026-04-30 01:28 0.41388 26.64340 34917 ft 448 kts 94°
2026-04-30 01:29 0.41005 26.70552 34916 ft 448 kts 94°
2026-04-30 01:29 0.40622 26.76773 34917 ft 448 kts 94°
2026-04-30 01:30 0.40240 26.82987 34917 ft 448 kts 94°
2026-04-30 01:30 0.39857 26.89200 34924 ft 448 kts 94°
2026-04-30 01:31 0.39474 26.95422 34921 ft 448 kts 94°
2026-04-30 01:31 0.39093 27.01613 34920 ft 448 kts 94°
2026-04-30 01:32 0.38710 27.07831 34923 ft 448 kts 94°
2026-04-30 01:32 0.38327 27.14056 34924 ft 448 kts 94°
2026-04-30 01:33 0.37944 27.20274 34927 ft 448 kts 94°
2026-04-30 01:33 0.37561 27.26492 34925 ft 448 kts 94°
2026-04-30 01:34 0.37180 27.32673 34923 ft 448 kts 94°
2026-04-30 01:34 0.36797 27.38893 34921 ft 448 kts 94°
2026-04-30 01:35 0.36414 27.45110 34924 ft 448 kts 94°
2026-04-30 01:35 0.36031 27.51318 34922 ft 448 kts 94°
2026-04-30 01:36 0.35648 27.57531 34921 ft 447 kts 94°
2026-04-30 01:36 0.35265 27.63741 34920 ft 447 kts 94°
2026-04-30 01:37 0.34886 27.69900 34920 ft 447 kts 94°
2026-04-30 01:37 0.34503 27.76100 34923 ft 447 kts 94°
2026-04-30 01:38 0.34121 27.82305 34920 ft 447 kts 94°
2026-04-30 01:38 0.33739 27.88502 34926 ft 447 kts 94°
2026-04-30 01:39 0.33357 27.94700 34925 ft 447 kts 94°
2026-04-30 01:39 0.32977 28.00897 34924 ft 447 kts 94°
2026-04-30 01:40 0.32598 28.07093 34926 ft 447 kts 94°
2026-04-30 01:40 0.32219 28.13304 34922 ft 447 kts 94°
2026-04-30 01:41 0.31842 28.19467 34927 ft 447 kts 94°
2026-04-30 01:41 0.31463 28.25670 34928 ft 447 kts 94°
2026-04-30 01:42 0.31084 28.31866 34936 ft 447 kts 94°
2026-04-30 01:42 0.30706 28.38055 34938 ft 447 kts 94°
2026-04-30 01:43 0.30327 28.44258 34939 ft 447 kts 94°
2026-04-30 01:43 0.29947 28.50462 34938 ft 447 kts 94°
2026-04-30 01:44 0.29568 28.56664 34949 ft 447 kts 94°
2026-04-30 01:44 0.29191 28.62816 34949 ft 446 kts 94°
2026-04-30 01:45 0.28812 28.69014 34954 ft 446 kts 94°
2026-04-30 01:45 0.28433 28.75209 34951 ft 446 kts 94°
2026-04-30 01:46 0.28054 28.81395 34964 ft 446 kts 94°
2026-04-30 01:46 0.27676 28.87579 34961 ft 446 kts 94°
2026-04-30 01:47 0.27300 28.93728 34967 ft 446 kts 94°
2026-04-30 01:47 0.26921 28.99916 34973 ft 445 kts 94°
2026-04-30 01:48 0.26542 29.06101 34986 ft 445 kts 94°
2026-04-30 01:48 0.26164 29.12283 34982 ft 445 kts 94°
2026-04-30 01:49 0.25788 29.18428 34995 ft 445 kts 94°
2026-04-30 01:49 0.25410 29.24596 34989 ft 444 kts 94°
2026-04-30 01:50 0.25033 29.30755 35005 ft 444 kts 95°
2026-04-30 01:50 0.24654 29.36912 34995 ft 444 kts 95°
2026-04-30 01:51 0.24167 29.43053 35002 ft 443 kts 96°
2026-04-30 01:51 0.23751 29.49199 35000 ft 444 kts 94°
2026-04-30 01:52 0.23403 29.55352 35001 ft 443 kts 94°
2026-04-30 01:52 0.23046 29.61461 35017 ft 443 kts 94°
2026-04-30 01:53 0.22674 29.67612 35015 ft 443 kts 95°
2026-04-30 01:53 0.22300 29.73757 35018 ft 443 kts 95°
2026-04-30 01:54 0.21927 29.79895 35022 ft 442 kts 95°
2026-04-30 01:54 0.21553 29.86033 35029 ft 442 kts 94°
2026-04-30 01:55 0.21182 29.92165 35030 ft 442 kts 94°
2026-04-30 01:55 0.20830 29.98260 35041 ft 442 kts 94°
2026-04-30 01:56 0.20479 30.04396 35035 ft 442 kts 94°
2026-04-30 01:56 0.20126 30.10534 35037 ft 443 kts 94°
2026-04-30 01:57 0.19772 30.16672 35035 ft 442 kts 94°
2026-04-30 01:57 0.19418 30.22806 35019 ft 442 kts 94°
2026-04-30 01:58 0.19064 30.28933 35020 ft 441 kts 94°
2026-04-30 01:58 0.18711 30.35050 35019 ft 440 kts 94°
2026-04-30 01:59 0.18185 30.44164 35020 ft 439 kts 94°
2026-04-30 02:00 0.17834 30.50253 35013 ft 439 kts 94°
2026-04-30 02:00 0.17482 30.56339 35016 ft 438 kts 94°
2026-04-30 02:01 0.17122 30.62410 35022 ft 437 kts 94°
2026-04-30 02:01 0.16721 30.68481 35016 ft 437 kts 95°
2026-04-30 02:02 0.16317 30.74543 35011 ft 437 kts 95°
2026-04-30 02:02 0.15983 30.79591 35009 ft 437 kts 95°
2026-04-30 02:03 0.15521 30.86634 35015 ft 437 kts 94°
2026-04-30 02:03 0.15188 30.91719 35008 ft 438 kts 94°
2026-04-30 02:04 0.14791 30.97788 35012 ft 438 kts 94°
2026-04-30 02:04 0.14395 31.03818 35011 ft 438 kts 94°
2026-04-30 02:05 0.13998 31.09890 35018 ft 438 kts 94°
2026-04-30 02:05 0.13600 31.15961 35020 ft 438 kts 94°
2026-04-30 02:06 0.13201 31.22040 35019 ft 438 kts 94°
2026-04-30 02:06 0.12803 31.28116 35017 ft 438 kts 94°
2026-04-30 02:07 0.12405 31.34191 35027 ft 438 kts 94°
2026-04-30 02:07 0.12014 31.40225 35024 ft 438 kts 94°
2026-04-30 02:08 0.11625 31.46305 35028 ft 437 kts 94°
2026-04-30 02:08 0.11236 31.52378 35038 ft 437 kts 94°
2026-04-30 02:09 0.10847 31.58443 35042 ft 437 kts 94°
2026-04-30 02:09 0.10458 31.64508 35040 ft 437 kts 94°
2026-04-30 02:10 0.10069 31.70574 35039 ft 438 kts 94°
2026-04-30 02:10 0.09677 31.76604 35043 ft 437 kts 94°
2026-04-30 02:11 0.09281 31.82671 35042 ft 438 kts 94°
2026-04-30 02:11 0.08885 31.88748 35044 ft 438 kts 94°
2026-04-30 02:12 0.08489 31.94825 35050 ft 438 kts 94°
2026-04-30 02:12 0.08094 32.00898 35048 ft 438 kts 94°
2026-04-30 02:13 0.07697 32.06986 35050 ft 438 kts 94°
2026-04-30 02:13 0.07301 32.13065 35043 ft 439 kts 94°
2026-04-30 02:14 0.06905 32.19155 35049 ft 439 kts 94°
2026-04-30 02:14 0.06510 32.25218 35049 ft 440 kts 94°
2026-04-30 02:15 0.06111 32.31341 35046 ft 441 kts 94°
2026-04-30 02:15 0.05712 32.37462 35044 ft 441 kts 94°
2026-04-30 02:16 0.05243 32.43582 35044 ft 442 kts 99°
2026-04-30 02:16 0.03652 32.49473 35049 ft 442 kts 108°
2026-04-30 02:17 0.01762 32.55331 35047 ft 443 kts 108°
2026-04-30 02:17 -0.00108 32.61207 35033 ft 444 kts 107°
2026-04-30 02:18 -0.01953 32.67103 35011 ft 445 kts 108°
2026-04-30 02:18 -0.03794 32.73023 34995 ft 445 kts 108°
2026-04-30 02:19 -0.05631 32.78936 34991 ft 446 kts 107°
2026-04-30 02:19 -0.07471 32.84854 34976 ft 446 kts 107°
2026-04-30 02:20 -0.09301 32.90739 34979 ft 446 kts 108°
2026-04-30 02:20 -0.11140 32.96654 34960 ft 446 kts 108°
2026-04-30 02:21 -0.12976 33.02558 34961 ft 445 kts 108°
2026-04-30 02:21 -0.14816 33.08474 34958 ft 444 kts 108°
2026-04-30 02:22 -0.16649 33.14369 34955 ft 444 kts 108°
2026-04-30 02:22 -0.18479 33.20256 34959 ft 443 kts 108°
2026-04-30 02:23 -0.20298 33.26106 34961 ft 443 kts 108°
2026-04-30 02:23 -0.22126 33.31984 34956 ft 443 kts 108°
2026-04-30 02:24 -0.23956 33.37871 34958 ft 443 kts 108°
2026-04-30 02:24 -0.25783 33.43747 34956 ft 443 kts 108°
2026-04-30 02:25 -0.27637 33.49621 34955 ft 443 kts 109°
2026-04-30 02:25 -0.29575 33.55426 34956 ft 443 kts 109°
2026-04-30 02:26 -0.31532 33.61263 34959 ft 443 kts 109°
2026-04-30 02:26 -0.33482 33.67114 34960 ft 443 kts 109°
2026-04-30 02:27 -0.35426 33.72972 34959 ft 444 kts 110°
2026-04-30 02:27 -0.37369 33.78826 34961 ft 444 kts 110°
2026-04-30 02:28 -0.39316 33.84694 34965 ft 444 kts 110°
2026-04-30 02:28 -0.41250 33.90522 34967 ft 444 kts 110°
2026-04-30 02:29 -0.43198 33.96390 34967 ft 445 kts 110°
2026-04-30 02:29 -0.44958 34.02321 34986 ft 445 kts 107°
2026-04-30 02:30 -0.46548 34.08306 34979 ft 446 kts 107°
2026-04-30 02:30 -0.48156 34.14290 34988 ft 446 kts 107°
2026-04-30 02:31 -0.49785 34.20234 34990 ft 446 kts 107°
2026-04-30 02:31 -0.51433 34.26212 35000 ft 446 kts 107°
2026-04-30 02:32 -0.53084 34.32200 35010 ft 447 kts 107°
2026-04-30 02:32 -0.54736 34.38197 35012 ft 447 kts 107°
2026-04-30 02:33 -0.56389 34.44197 35012 ft 447 kts 107°
2026-04-30 02:33 -0.58029 34.50152 35014 ft 448 kts 107°
2026-04-30 02:34 -0.59681 34.56151 35020 ft 448 kts 107°
2026-04-30 02:34 -0.61376 34.62145 35022 ft 448 kts 108°
2026-04-30 02:35 -0.63167 34.68114 35045 ft 448 kts 108°
2026-04-30 02:35 -0.64962 34.74075 35051 ft 448 kts 108°
2026-04-30 02:36 -0.66744 34.80041 35049 ft 448 kts 108°
2026-04-30 02:36 -0.68510 34.85971 35049 ft 448 kts 108°
2026-04-30 02:37 -0.70285 34.91940 35052 ft 447 kts 108°
2026-04-30 02:37 -0.72058 34.97899 35062 ft 447 kts 108°
2026-04-30 02:38 -0.73830 35.03852 35068 ft 447 kts 108°
2026-04-30 02:38 -0.75602 35.09808 35074 ft 447 kts 108°
2026-04-30 02:39 -0.77373 35.15763 35080 ft 447 kts 108°
2026-04-30 02:39 -0.79145 35.21718 35076 ft 447 kts 108°
2026-04-30 02:40 -0.80917 35.27675 35084 ft 447 kts 108°
2026-04-30 02:40 -0.81796 35.30632 34655 ft 453 kts 108°
2026-04-30 02:40 -0.82693 35.33647 34079 ft 451 kts 108°
2026-04-30 02:40 -0.83598 35.36651 33358 ft 451 kts 109°
2026-04-30 02:41 -0.84807 35.39537 32759 ft 448 kts 117°
2026-04-30 02:41 -0.86213 35.42298 32270 ft 444 kts 118°
2026-04-30 02:41 -0.87663 35.45005 31766 ft 440 kts 119°
2026-04-30 02:41 -0.89109 35.47689 31301 ft 437 kts 119°
2026-04-30 02:42 -0.90533 35.50361 30811 ft 434 kts 118°
2026-04-30 02:42 -0.91933 35.53027 30303 ft 432 kts 118°
2026-04-30 02:42 -0.93309 35.55679 29764 ft 430 kts 118°
2026-04-30 02:42 -0.94672 35.58329 29236 ft 426 kts 117°
2026-04-30 02:43 -0.96015 35.60951 28719 ft 422 kts 117°
2026-04-30 02:43 -0.97344 35.63553 28220 ft 418 kts 117°
2026-04-30 02:43 -0.98664 35.66135 27734 ft 414 kts 117°
2026-04-30 02:43 -0.99969 35.68690 27241 ft 411 kts 117°
2026-04-30 02:44 -1.01265 35.71225 26760 ft 408 kts 117°
2026-04-30 02:44 -1.02538 35.73714 26287 ft 405 kts 117°
2026-04-30 02:44 -1.03831 35.76244 25804 ft 403 kts 117°
2026-04-30 02:44 -1.05093 35.78711 25326 ft 401 kts 117°
2026-04-30 02:45 -1.06360 35.81188 24839 ft 400 kts 117°
2026-04-30 02:45 -1.07622 35.83656 24362 ft 398 kts 117°
2026-04-30 02:45 -1.08878 35.86113 23888 ft 396 kts 117°
2026-04-30 02:45 -1.10130 35.88562 23356 ft 395 kts 117°
2026-04-30 02:46 -1.11375 35.90996 22839 ft 392 kts 117°
2026-04-30 02:46 -1.12611 35.93414 22351 ft 389 kts 117°
2026-04-30 02:46 -1.13838 35.95815 21886 ft 386 kts 117°
2026-04-30 02:46 -1.15056 35.98196 21408 ft 383 kts 117°
2026-04-30 02:47 -1.16264 36.00560 20960 ft 381 kts 117°
2026-04-30 02:47 -1.17466 36.02909 20507 ft 378 kts 117°
2026-04-30 02:47 -1.18661 36.05247 20041 ft 377 kts 117°
2026-04-30 02:47 -1.19852 36.07577 19580 ft 376 kts 117°
2026-04-30 02:48 -1.21041 36.09904 19108 ft 375 kts 117°
2026-04-30 02:48 -1.22225 36.12220 18659 ft 374 kts 117°
2026-04-30 02:48 -1.23009 36.13753 18350 ft 373 kts 117°
2026-04-30 02:48 -1.24188 36.16060 17831 ft 372 kts 117°
2026-04-30 02:49 -1.25357 36.18347 17363 ft 369 kts 117°
2026-04-30 02:49 -1.26520 36.20623 16917 ft 366 kts 117°
2026-04-30 02:49 -1.28050 36.23616 16323 ft 363 kts 117°
2026-04-30 02:49 -1.28825 36.25132 16036 ft 361 kts 117°
2026-04-30 02:50 -1.30332 36.28081 15501 ft 357 kts 117°
2026-04-30 02:50 -1.31092 36.29569 15238 ft 355 kts 117°
2026-04-30 02:50 -1.32203 36.31744 15003 ft 347 kts 117°
2026-04-30 02:50 -1.33271 36.33835 14821 ft 338 kts 117°
2026-04-30 02:51 -1.34337 36.35919 14738 ft 326 kts 117°
2026-04-30 02:51 -1.35356 36.37923 14178 ft 327 kts 116°
2026-04-30 02:51 -1.36316 36.39969 13704 ft 321 kts 114°
2026-04-30 02:51 -1.37216 36.41979 13331 ft 312 kts 114°
2026-04-30 02:52 -1.38086 36.43933 12975 ft 303 kts 114°
2026-04-30 02:52 -1.38935 36.45837 12654 ft 298 kts 114°
2026-04-30 02:52 -1.39778 36.47718 12341 ft 297 kts 114°
2026-04-30 02:52 -1.40625 36.49600 12022 ft 296 kts 114°
2026-04-30 02:53 -1.41471 36.51474 11701 ft 295 kts 114°
2026-04-30 02:53 -1.42312 36.53336 11378 ft 294 kts 114°
2026-04-30 02:53 -1.43152 36.55193 11061 ft 293 kts 114°
2026-04-30 02:53 -1.43990 36.57047 10748 ft 292 kts 114°
2026-04-30 02:54 -1.44826 36.58895 10416 ft 291 kts 114°
2026-04-30 02:54 -1.45660 36.60737 10105 ft 291 kts 114°
2026-04-30 02:54 -1.46493 36.62577 9761 ft 290 kts 114°
2026-04-30 02:54 -1.47323 36.64410 9405 ft 289 kts 114°
2026-04-30 02:55 -1.48139 36.66212 9091 ft 287 kts 114°
2026-04-30 02:55 -1.48693 36.68083 8942 ft 278 kts 91°
2026-04-30 02:55 -1.48258 36.69919 8777 ft 272 kts 64°
2026-04-30 02:55 -1.47320 36.71544 8585 ft 267 kts 57°
2026-04-30 02:56 -1.46266 36.73066 8381 ft 263 kts 55°
2026-04-30 02:56 -1.45208 36.74512 8224 ft 252 kts 54°
2026-04-30 02:56 -1.44193 36.75896 8017 ft 242 kts 54°
2026-04-30 02:56 -1.43221 36.77230 7849 ft 232 kts 54°
2026-04-30 02:57 -1.42294 36.78506 7680 ft 220 kts 55°
2026-04-30 02:57 -1.41417 36.79714 7512 ft 209 kts 55°
2026-04-30 02:57 -1.40581 36.80866 7351 ft 199 kts 55°
2026-04-30 02:57 -1.39785 36.81961 7206 ft 190 kts 55°
2026-04-30 02:58 -1.39036 36.82993 7068 ft 181 kts 55°
2026-04-30 02:58 -1.38298 36.84009 6949 ft 180 kts 55°
2026-04-30 02:58 -1.37569 36.85013 6758 ft 175 kts 55°
2026-04-30 02:58 -1.36872 36.85972 6616 ft 168 kts 55°
2026-04-30 02:59 -1.36199 36.86899 6438 ft 162 kts 55°
2026-04-30 02:59 -1.35545 36.87800 6256 ft 158 kts 55°
2026-04-30 02:59 -1.34899 36.88688 6058 ft 158 kts 55°
2026-04-30 02:59 -1.34252 36.89579 5882 ft 160 kts 54°
2026-04-30 03:00 -1.33604 36.90480 5668 ft 159 kts 54°
2026-04-30 03:00 -1.32959 36.91370 5430 ft 158 kts 54°
2026-04-30 03:00 -1.32330 36.92236 5304 ft 145 kts 55°
2026-04-30 03:00 -1.31849 36.92881 5296 ft 85 kts 54°
2026-04-30 03:01 -1.31633 36.93176 5291 ft 20 kts 52°
2026-04-30 03:01 -1.31590 36.93236 5292 ft 9 kts 54°
2026-04-30 03:01 -1.31562 36.93291 5297 ft 9 kts 85°
2026-04-30 03:01 -1.31588 36.93345 5293 ft 9 kts 144°
2026-04-30 03:02 -1.31637 36.93379 5292 ft 8 kts 144°
2026-04-30 03:02 -1.31684 36.93413 5298 ft 8 kts 144°
2026-04-30 03:02 -1.31730 36.93446 5298 ft 8 kts 144°
2026-04-30 03:02 -1.31775 36.93477 5298 ft 8 kts 150°
2026-04-30 03:03 -1.31824 36.93471 5294 ft 7 kts 220°
2026-04-30 03:03 -1.31885 36.93389 5296 ft 7 kts 233°
2026-04-30 03:03 -1.31914 36.93350 5300 ft 7 kts 233°
2026-04-30 03:04 -1.31942 36.93312 5302 ft 7 kts 234°
2026-04-30 03:04 -1.31969 36.93274 5300 ft 7 kts 234°
2026-04-30 03:04 -1.31998 36.93235 5298 ft 8 kts 234°
2026-04-30 03:04 -1.32037 36.93181 5302 ft 11 kts 233°
2026-04-30 03:05 -1.32087 36.93113 5304 ft 12 kts 234°
2026-04-30 03:05 -1.32137 36.93044 5307 ft 12 kts 233°
2026-04-30 03:05 -1.32186 36.92978 5303 ft 12 kts 234°
2026-04-30 03:05 -1.32233 36.92913 5312 ft 11 kts 234°
2026-04-30 03:06 -1.32279 36.92850 5304 ft 11 kts 233°
2026-04-30 03:06 -1.32324 36.92789 5314 ft 11 kts 234°
2026-04-30 03:06 -1.32375 36.92738 5312 ft 10 kts 195°
2026-04-30 03:06 -1.32439 36.92766 5309 ft 10 kts 142°
2026-04-30 03:07 -1.32496 36.92808 5312 ft 10 kts 144°
2026-04-30 03:07 -1.32551 36.92848 5315 ft 10 kts 144°
2026-04-30 03:07 -1.32605 36.92887 5312 ft 9 kts 144°
2026-04-30 03:07 -1.32657 36.92925 5315 ft 9 kts 144°
2026-04-30 03:08 -1.32708 36.92962 5315 ft 9 kts 144°
2026-04-30 03:08 -1.32763 36.92965 5315 ft 9 kts 216°
2026-04-30 03:08 -1.32799 36.92918 5315 ft 8 kts 234°
2026-04-30 03:08 -1.32833 36.92872 5306 ft 8 kts 234°
2026-04-30 03:09 -1.32866 36.92826 5309 ft 8 kts 234°
2026-04-30 03:09 -1.32891 36.92792 5314 ft 5 kts 234°
2026-04-30 03:09 -1.32901 36.92761 5308 ft 5 kts 270°
2026-04-30 03:09 -1.32885 36.92734 5313 ft 5 kts 319°
2026-04-30 03:10 -1.32877 36.92705 5313 ft 5 kts 251°
2026-04-30 03:10 -1.32898 36.92679 5310 ft 5 kts 228°
2026-04-30 03:10 -1.32916 36.92659 5314 ft 2 kts 229°
2026-04-30 03:10 -1.32923 36.92650 5314 ft 2 kts 229°
2026-04-30 03:11 -1.32924 36.92650 5314 ft 0 kts 229°